Location: Huppendorf
(49.9333°N, 11.1500°E)
Time: 19:37:23
(UTC+00:00)

STARLINK-1037 - Pass Details

Date: 27 February 2020
Orbit: 548 x 551 km, 53.0° (Epoch: 30 March)

Event Time Altitude Azimuth Distance (km) Brightness Sun altitude
Rises 18:57:27 0° 270° (W) 2,715 8.6 -20.7°
Reaches altitude 10° 18:59:43 10° 274° (W) 1,822 7.4 -21.0°
Maximum altitude 19:03:48 57° 354° (N) 654 4.0 -21.6°
Enters shadow 19:04:24 50° 30° (NNE) 702 3.9 -21.7°
